Thedford, NE

9:34 AM CDT on May 20, 2018 (GMT -0500)
Thedford

Weather History for KTIF - February, 2013

Change the Weather History Date:

Saturday, February 23, 2013

  Actual Average (KANW) Record (KANW)
Temperature  
Mean Temperature 26 °F -  
Max Temperature 40 °F 37 °F 69 °F (2002)
Min Temperature 11 °F 18 °F 0 °F (2015)
Degree Days  
Heating Degree Days 40    
Moisture  
Dew Point 16 °F    
Average Humidity 69    
Maximum Humidity 85    
Minimum Humidity 43    
Precipitation  
Precipitation 0.00 in - - ()
Sea Level Pressure  
Sea Level Pressure 29.74 in    
Wind  
Wind Speed 4 mph (WSW)    
Max Wind Speed 12 mph    
Max Gust Speed -    
Visibility 10 miles    
Events      
Averages and records for this station are not official NWS values.
T = Trace of Precipitation, MM = Missing Value Source: NWS Daily Summary

Daily Weather History Graph

Daily Weather History Graph

Search for Another Location

Airport or City:

Astronomy

Feb. 23, 2013 Rise Set
Actual Time 7:26 AM CST 6:25 PM CST
Civil Twilight 6:57 AM CST 6:53 PM CST
Nautical Twilight 6:25 AM CST 7:26 PM CST
Astronomical Twilight 5:53 AM CST 7:58 PM CST
Moon 4:36 PM CST (2/23) 5:51 AM CST (2/23)
Length of Visible Light 11h 55m
Length of Day
10h 59m
Waxing Gibbous, 95% of the Moon is Illuminated
Feb 23
Waxing Gibbous
Feb 25
Full
Mar 4
Last Quarter
Mar 11
New
Mar 19
First Quarter

Hourly Weather History & Observations

Time (CST) Temp. Windchill Dew Point Humidity Pressure Visibility Wind Dir Wind Speed Gust Speed Precip Events Conditions
12:15 AM 15.4 °F 5.6 °F 11.1 °F 83% 29.86 in 10.0 mi SW 6.9 mph - N/A   Clear
12:35 AM 15.3 °F 5.4 °F 10.4 °F 81% 29.85 in 10.0 mi WSW 6.9 mph - N/A   Clear
12:55 AM 14.9 °F 6.1 °F 10.4 °F 82% 29.85 in 10.0 mi WSW 5.8 mph - N/A   Clear
1:15 AM 13.3 °F 7.3 °F 8.8 °F 82% 29.84 in 10.0 mi SW 3.5 mph - N/A   Clear
1:35 AM 12.6 °F - 8.4 °F 83% 29.83 in 10.0 mi Calm Calm - N/A   Clear
1:55 AM 12.7 °F 6.7 °F 9.0 °F 85% 29.83 in 10.0 mi West 3.5 mph - N/A   Clear
2:15 AM 11.7 °F 3.7 °F 7.2 °F 82% 29.82 in 10.0 mi West 4.6 mph - N/A   Clear
2:35 AM 14.2 °F 6.7 °F 10.2 °F 84% 29.81 in 10.0 mi WSW 4.6 mph - N/A   Clear
2:55 AM 12.4 °F 4.6 °F 7.9 °F 82% 29.80 in 10.0 mi West 4.6 mph - N/A   Clear
3:15 AM 14.5 °F - 10.4 °F 84% 29.80 in 10.0 mi Calm Calm - N/A   Clear
3:35 AM 13.3 °F - 9.0 °F 83% 29.79 in 10.0 mi Calm Calm - N/A   Clear
3:55 AM 13.3 °F - 8.8 °F 82% 29.78 in 10.0 mi Calm Calm - N/A   Clear
4:15 AM 14.9 °F 6.1 °F 9.9 °F 80% 29.78 in 10.0 mi West 5.8 mph - N/A   Clear
4:35 AM 14.0 °F 8.2 °F 9.3 °F 82% 29.78 in 10.0 mi West 3.5 mph - N/A   Clear
4:55 AM 16.7 °F 11.2 °F 10.8 °F 77% 29.77 in 10.0 mi West 3.5 mph - N/A   Clear
5:15 AM 15.3 °F 7.9 °F 9.5 °F 78% 29.77 in 10.0 mi West 4.6 mph - N/A   Clear
5:35 AM 16.2 °F 10.6 °F 10.2 °F 77% 29.77 in 10.0 mi West 3.5 mph - N/A   Clear
5:55 AM 13.1 °F - 8.1 °F 80% 29.76 in 10.0 mi Calm Calm - N/A   Clear
6:15 AM 14.9 °F - 9.5 °F 79% 29.76 in 10.0 mi Calm Calm - N/A   Clear
6:35 AM 14.2 °F - 8.4 °F 78% 29.76 in 10.0 mi Calm Calm - N/A   Clear
6:55 AM 14.0 °F - 8.4 °F 78% 29.75 in 10.0 mi Calm Calm - N/A   Clear
7:15 AM 13.5 °F - 7.9 °F 78% 29.75 in 10.0 mi Calm Calm - N/A   Clear
7:35 AM 15.8 °F - 9.1 °F 75% 29.74 in 10.0 mi Calm Calm - N/A   Clear
7:55 AM 15.6 °F - 9.1 °F 76% 29.74 in 10.0 mi Calm Calm - N/A   Clear
8:15 AM 16.3 °F - 9.3 °F 74% 29.74 in 10.0 mi Calm Calm - N/A   Clear
8:35 AM 15.4 °F 9.8 °F 9.7 °F 78% 29.74 in 10.0 mi West 3.5 mph - N/A   Clear
8:55 AM 18.5 °F 11.7 °F 11.1 °F 73% 29.74 in 10.0 mi West 4.6 mph - N/A   Clear
9:15 AM 20.3 °F 15.4 °F 12.6 °F 72% 29.74 in 10.0 mi West 3.5 mph - N/A   Clear
9:35 AM 24.1 °F 17.0 °F 13.5 °F 64% 29.74 in 10.0 mi West 5.8 mph - N/A   Clear
9:55 AM 25.2 °F - 13.1 °F 60% 29.74 in 10.0 mi Calm Calm - N/A   Clear
10:15 AM 27.0 °F 21.6 °F 13.5 °F 57% 29.73 in 10.0 mi West 4.6 mph - N/A   Clear
10:35 AM 30.0 °F 20.5 °F 14.5 °F 53% 29.74 in 10.0 mi West 11.5 mph - N/A   Clear
10:55 AM 31.1 °F 22.4 °F 15.6 °F 53% 29.74 in 10.0 mi West 10.4 mph - N/A   Clear
11:15 AM 32.0 °F 24.2 °F 16.0 °F 52% 29.73 in 10.0 mi West 9.2 mph - N/A   Clear
11:35 AM 32.7 °F 25.0 °F 16.7 °F 52% 29.73 in 10.0 mi West 9.2 mph - N/A   Clear
12:15 PM 35.2 °F 31.2 °F 18.7 °F 51% 29.73 in 10.0 mi West 4.6 mph - N/A   Clear
12:35 PM 36.5 °F 30.3 °F 18.5 °F 48% 29.72 in 10.0 mi WSW 8.1 mph - N/A   Clear
12:55 PM 36.7 °F 32.0 °F 18.5 °F 48% 29.71 in 10.0 mi West 5.8 mph - N/A   Clear
1:15 PM 37.4 °F 32.8 °F 19.4 °F 48% 29.71 in 10.0 mi West 5.8 mph - N/A   Clear
1:35 PM 37.9 °F 33.5 °F 18.9 °F 46% 29.69 in 10.0 mi WSW 5.8 mph - N/A   Clear
1:55 PM 38.7 °F 34.3 °F 18.3 °F 44% 29.68 in 10.0 mi WSW 5.8 mph - N/A   Clear
2:15 PM 39.6 °F 34.7 °F 18.9 °F 43% 29.68 in 10.0 mi SW 6.9 mph - N/A   Clear
2:35 PM 40.1 °F 35.3 °F 18.9 °F 43% 29.68 in 10.0 mi SW 6.9 mph - N/A   Clear
2:55 PM 40.1 °F 34.7 °F 18.9 °F 43% 29.67 in 10.0 mi SW 8.1 mph - N/A   Clear
3:15 PM 40.5 °F 35.8 °F 20.5 °F 45% 29.67 in 10.0 mi SW 6.9 mph - N/A   Clear
3:35 PM 40.1 °F 34.7 °F 21.7 °F 48% 29.67 in 10.0 mi SSW 8.1 mph - N/A   Clear
3:55 PM 39.6 °F 34.7 °F 21.7 °F 49% 29.67 in 10.0 mi SSW 6.9 mph - N/A   Clear
4:15 PM 39.0 °F 34.0 °F 23.2 °F 53% 29.67 in 10.0 mi SSW 6.9 mph - N/A   Clear
4:35 PM 38.3 °F 34.8 °F 23.2 °F 55% 29.67 in 10.0 mi SSW 4.6 mph - N/A   Clear
4:55 PM 37.4 °F 34.9 °F 23.5 °F 57% 29.67 in 10.0 mi South 3.5 mph - N/A   Clear
5:15 PM 36.5 °F 32.7 °F 24.3 °F 61% 29.67 in 10.0 mi South 4.6 mph - N/A   Clear
5:35 PM 35.6 °F 30.7 °F 24.4 °F 64% 29.67 in 10.0 mi SSW 5.8 mph - N/A   Clear
5:55 PM 35.2 °F 29.5 °F 24.8 °F 66% 29.67 in 10.0 mi South 6.9 mph - N/A   Clear
6:15 PM 34.5 °F 30.4 °F 24.8 °F 68% 29.67 in 10.0 mi South 4.6 mph - N/A   Clear
6:55 PM 32.0 °F 27.5 °F 25.2 °F 76% 29.68 in 10.0 mi ESE 4.6 mph - N/A   Scattered Clouds
7:15 PM 32.0 °F - 24.8 °F 75% 29.69 in 10.0 mi Calm Calm - N/A   Scattered Clouds
7:35 PM 31.1 °F 27.7 °F 24.4 °F 76% 29.70 in 10.0 mi South 3.5 mph - N/A   Clear
7:55 PM 32.7 °F - 24.4 °F 72% 29.71 in 10.0 mi Calm Calm - N/A   Mostly Cloudy
8:15 PM 32.0 °F - 24.1 °F 73% 29.71 in 10.0 mi Calm Calm - N/A   Scattered Clouds
8:35 PM 31.6 °F - 23.9 °F 73% 29.71 in 10.0 mi Calm Calm - N/A   Clear
8:55 PM 31.6 °F - 23.9 °F 73% 29.71 in 10.0 mi Calm Calm - N/A   Scattered Clouds
9:15 PM 31.6 °F - 23.7 °F 73% 29.72 in 10.0 mi Calm Calm - N/A   Overcast
9:35 PM 30.2 °F - 23.9 °F 77% 29.72 in 7.0 mi Calm Calm - N/A   Overcast
9:55 PM 30.9 °F - 23.4 °F 74% 29.73 in 10.0 mi Calm Calm - N/A   Overcast
10:15 PM 30.2 °F 25.4 °F 22.8 °F 74% 29.73 in 7.0 mi SSW 4.6 mph - N/A   Overcast
10:35 PM 29.5 °F 25.9 °F 22.1 °F 74% 29.73 in 7.0 mi SSW 3.5 mph - N/A   Scattered Clouds
10:55 PM 28.6 °F 20.7 °F 21.6 °F 75% 29.73 in 7.0 mi SSW 8.1 mph - N/A   Scattered Clouds
11:15 PM 27.5 °F 21.1 °F 20.8 °F 76% 29.73 in 7.0 mi SW 5.8 mph - N/A   Clear
11:35 PM 27.3 °F - 21.2 °F 78% 29.74 in 7.0 mi Calm Calm - N/A   Scattered Clouds
11:55 PM 26.6 °F - 20.5 °F 78% 29.74 in 7.0 mi Calm Calm - N/A   Mostly Cloudy